MET994 - Hong Kong to Kuala Lumpur International Airport

Airbus A330-243
787MT
3 hrs 30 mins
1375 nm
Scheduled - M | TU | TH

Bid/PiRep Status

Bid was submitted on January 2nd, 2017 16:27 UTC.
PiRep # 74577: Approved by Dave Nichols on January 3rd, 2017 10:15 UTC

Departure

Departing from
Hong Kong (HKG)
Departure gate
Terminal 1
Scheduled Departure
GMT 0715
Local 1515
METAR VHHH 250100Z 01009KT 330V030 9000 FEW030 17/11 Q1023 NOSIG
TAF TAF VHHH 242300Z 2500/2606 03010KT 9000 FEW025 SCT040 TX18/2506Z TX19/2606Z TN15/2523Z TEMPO 2503/2509 4000 RA
  • No charts available

Arrival

Arriving at
Kuala Lumpur International Airport (KUL)
Arrival gate
Unassigned
Scheduled Arrival
GMT 1045
Local 1845
METAR WMKK 250100Z VRB02KT 9999 FEW017CB SCT140 BKN280 27/24 Q1010 NOSIG
TAF TAF WMKK 242300Z 2500/2606 03005KT 9999 FEW017CB SCT140 BKN280 TEMPO 2505/2509 2000 TSRA FEW015CB SCT018

Route Map

Planning Resources

PECA1A SIKOU A202 SAMAS G221 PCA TSN L637 BITOD IKUKO PULIP PULI1V
PECAN V10 ALLEY V31 SURFA V11 IDOSI A1 BUNTA G221 PCA W12 BMT W1 AC L644 CN L642 ENREP M763 TAXUL Y331 PIBOS
SANDI2A SANDI L642 ENREO M763 PIBOS PIBOSA
CH L642 VEPLI UGPEK VPK G584 VKL
PECAN1A PECAN V12 EPDOS L642 ENREP M763 TAXUL Y349 PULIP
Route:
OFP Layout:
Units:
Detailed Navlog:
ETOPS Planning:
Plan Stepclimbs:
Runway Analysis:
Include NOTAMS:
FIR NOTAMS:
Flight Maps:

Return Flights

MET995
Airbus A330-243
1145 GMT

Popularity

Hub Current Bids PiReps this month Total PiReps
KLAX 0 0 3
KBOS 0 0 0
KDFW 0 0 0